Flag for Germany Weather past 2 weeks in Zittau, Saxony, Germany

Now
67 °F

Mild.


Feels Like: 67 °F
Forecast: 55 / 84 °F
Wind: 3 mph from Southeast

Location: Liberec

Current Time: Aug 2, 2015 at 4:51:40 AM

Latest Report: Aug 2, 2015 at 4:00 AM


Visibility: 13 mi

Pressure: 30.02 "Hg

Humidity: 46%

Dew point: 45 °F

Location of ZittauLocation

Historic Weather in Zittau — Graph

°F

Zittau temperature yesterday

Maximum temperature yesterday: 78 °F (at 3:00 PM)
Minimum temperature yesterday: 44 °F (at 1:00 AM)
Average temperature yesterday: 62 °F

Past Weeks' High & Low Weather Summary

 TemperatureHumidityPressure
High92 °F (Jul 22, 4:00 PM)96% (Jul 19, 6:00 AM)30.12 "Hg (Jul 19, 6:00 AM)
Low41 °F (Jul 31, 5:00 AM)22% (Aug 1, 2:00 PM)29.60 "Hg (Jul 27, 4:00 PM)
Average66 °F60%29.88 "Hg
* Reported Midnight between Jul 17 and Jul 18 — Midnight between Aug 1 and Aug 2, Zittau, Weather by CustomWeather, © 2015

Note: Actual official high and low records may vary slightly from our data, if they occured in-between our weather recording intervals... More about our weather records

Advertising

Zittau weather history for previous 24 hours

 ConditionsComfort  
Time TempWeatherWind HumidityBarometerVisibility
12:00 AM
Sun, Aug 2
68 °FMild.3 mph42%30.00 "Hg12 mi
10:00 PM
Sat, Aug 1
68 °FOvercast.2 mph41%30.00 "Hg16 mi
9:00 PM68 °FOvercast.2 mph42%29.98 "Hg19 mi
8:00 PM69 °FOvercast.2 mph42%29.97 "Hg22 mi
6:00 PM74 °FMild.3 mph30%29.96 "Hg12 mi
5:00 PM75 °FPartly sunny.5 mph27%29.95 "Hg25 mi
4:00 PM76 °FPartly sunny.3 mph25%29.95 "Hg25 mi
3:00 PM78 °FPartly sunny.3 mph23%29.96 "Hg25 mi
2:00 PM77 °FPartly sunny.5 mph22%29.97 "Hg25 mi
1:00 PM74 °FScattered clouds.5 mph26%29.98 "Hg25 mi
12:00 PM74 °FScattered clouds.6 mph26%30.00 "Hg25 mi
11:00 AM72 °FScattered clouds.3 mph34%30.01 "Hg25 mi
10:00 AM69 °FPartly sunny.5 mph37%30.02 "Hg25 mi
9:00 AM67 °FPartly sunny.2 mph43%30.01 "Hg25 mi
8:00 AM62 °FScattered clouds.2 mph57%30.03 "Hg25 mi
7:00 AM50 °FCool.1 mph86%30.08 "Hg12 mi
6:00 AM46 °FCool.1 mph91%30.09 "Hg12 mi
5:00 AM44 °FQuite cool.1 mph92%30.10 "Hg12 mi
4:00 AM44 °FQuite cool.1 mph90%30.11 "Hg12 mi
Weather by CustomWeather, © 2015

See weather overviewHow to use our weather pages